• In Deutschland
  • Länderverzeichnis
  • Für 7 Tage
  • Wassertemperatur
  • Satellitenkarten
  • Wetterkarte
  • Widgets
  • user-avatar
    Anmelden

    Stündliche Wetter Baranovitschi

    Heute, 21 Juli, Freitag

    Zeit Temperatur Niederschläge Wind Luftdruck Luftfeuchtigkeit
    00:00 +16°C° 0 mm 2 m/S 743 mmHg 88%
    01:00 +16°C° 0 mm 2 m/S 743 mmHg 88%
    02:00 +15°C° 0 mm 2 m/S 743 mmHg 89%
    03:00 +15°C° 0 mm 2 m/S 743 mmHg 90%
    04:00 +15°C° 0 mm 2 m/S 743 mmHg 91%
    05:00 +15°C° 0 mm 2 m/S 743 mmHg 91%
    06:00 +16°C° 0 mm 2 m/S 744 mmHg 87%
    07:00 +18°C° 0 mm 2 m/S 744 mmHg 82%
    08:00 +19°C° 0 mm 2 m/S 744 mmHg 78%
    09:00 +21°C° 0 mm 2 m/S 744 mmHg 73%
    10:00 +23°C° 0 mm 2 m/S 744 mmHg 68%
    11:00 +25°C° 0 mm 2 m/S 744 mmHg 64%
    12:00 +25°C° 0 mm 2 m/S 744 mmHg 62%
    13:00 +26°C° 0 mm 2 m/S 744 mmHg 60%
    14:00 +26°C° 0 mm 2 m/S 745 mmHg 58%
    15:00 +26°C° 0 mm 2 m/S 744 mmHg 59%
    16:00 +26°C° 0 mm 2 m/S 744 mmHg 60%
    17:00 +26°C° 0 mm 2 m/S 744 mmHg 61%
    18:00 +24°C° 0,1 mm 2 m/S 745 mmHg 68%
    19:00 +23°C° 0,1 mm 2 m/S 745 mmHg 74%
    20:00 +20°C° 0,1 mm 2 m/S 745 mmHg 81%
    21:00 +19°C° 0,3 mm 2 m/S 745 mmHg 82%
    22:00 +19°C° 0,3 mm 2 m/S 745 mmHg 83%
    23:00 +18°C° 0,3 mm 2 m/S 745 mmHg 84%

    Morgen, 22 Juli, Samstag

    Zeit Temperatur Niederschläge Wind Luftdruck Luftfeuchtigkeit
    00:00 +17°C° 0,2 mm 2 m/S 745 mmHg 85%
    01:00 +17°C° 0,2 mm 2 m/S 745 mmHg 86%
    02:00 +16°C° 0,2 mm 2 m/S 745 mmHg 87%
    03:00 +16°C° 0,3 mm 2 m/S 745 mmHg 89%
    04:00 +16°C° 0,3 mm 2 m/S 745 mmHg 90%
    05:00 +16°C° 0,3 mm 2 m/S 745 mmHg 92%
    06:00 +16°C° 0,2 mm 2 m/S 745 mmHg 90%
    07:00 +17°C° 0,2 mm 2 m/S 745 mmHg 88%
    08:00 +18°C° 0,2 mm 2 m/S 745 mmHg 86%
    09:00 +19°C° 0 mm 2 m/S 746 mmHg 81%
    10:00 +21°C° 0 mm 2 m/S 746 mmHg 77%
    11:00 +23°C° 0 mm 2 m/S 746 mmHg 72%
    12:00 +24°C° 0 mm 2 m/S 746 mmHg 68%
    13:00 +25°C° 0 mm 2 m/S 746 mmHg 64%
    14:00 +26°C° 0 mm 2 m/S 746 mmHg 60%
    15:00 +25°C° 0 mm 2 m/S 746 mmHg 60%
    16:00 +25°C° 0 mm 2 m/S 746 mmHg 61%
    17:00 +25°C° 0 mm 2 m/S 746 mmHg 61%
    18:00 +24°C° 0 mm 2 m/S 746 mmHg 67%
    19:00 +21°C° 0 mm 2 m/S 746 mmHg 72%
    20:00 +21°C° 0 mm 1 m/S 746 mmHg 77%
    21:00 +20°C° 0 mm 1 m/S 747 mmHg 80%
    22:00 +19°C° 0 mm 1 m/S 747 mmHg 83%
    23:00 +18°C° 0 mm 1 m/S 747 mmHg 86%

    übermorgen, 23 Juli, Sonntag

    Zeit Temperatur Niederschläge Wind Luftdruck Luftfeuchtigkeit
    00:00 +16°C° 0 mm 1 m/S 747 mmHg 87%
    01:00 +16°C° 0 mm 1 m/S 747 mmHg 89%
    02:00 +15°C° 0 mm 1 m/S 747 mmHg 90%
    03:00 +15°C° 0 mm 1 m/S 747 mmHg 90%
    04:00 +15°C° 0 mm 1 m/S 747 mmHg 90%
    05:00 +14°C° 0 mm 1 m/S 747 mmHg 90%
    06:00 +16°C° 0 mm 1 m/S 748 mmHg 85%
    07:00 +18°C° 0 mm 2 m/S 748 mmHg 79%
    08:00 +20°C° 0 mm 2 m/S 748 mmHg 73%
    09:00 +21°C° 0 mm 2 m/S 748 mmHg 68%
    10:00 +24°C° 0 mm 2 m/S 748 mmHg 62%
    11:00 +25°C° 0 mm 2 m/S 748 mmHg 57%
    12:00 +25°C° 0 mm 1 m/S 747 mmHg 56%
    13:00 +26°C° 0 mm 1 m/S 747 mmHg 54%
    14:00 +27°C° 0 mm 1 m/S 747 mmHg 52%
    15:00 +26°C° 0 mm 1 m/S 747 mmHg 54%
    16:00 +26°C° 0 mm 1 m/S 747 mmHg 55%
    17:00 +26°C° 0 mm 1 m/S 746 mmHg 56%
    18:00 +25°C° 0 mm 1 m/S 746 mmHg 62%
    19:00 +23°C° 0 mm 2 m/S 746 mmHg 68%
    20:00 +21°C° 0 mm 2 m/S 746 mmHg 74%
    21:00 +20°C° 0 mm 2 m/S 746 mmHg 75%
    22:00 +19°C° 0 mm 2 m/S 746 mmHg 75%
    23:00 +18°C° 0 mm 2 m/S 746 mmHg 76%

    24 Juli, Montag

    Zeit Temperatur Niederschläge Wind Luftdruck Luftfeuchtigkeit
    00:00 +18°C° 0 mm 2 m/S 746 mmHg 76%
    01:00 +17°C° 0 mm 2 m/S 746 mmHg 77%
    02:00 +17°C° 0 mm 2 m/S 746 mmHg 77%
    03:00 +16°C° 0 mm 2 m/S 746 mmHg 79%
    04:00 +16°C° 0 mm 2 m/S 746 mmHg 80%
    05:00 +16°C° 0 mm 2 m/S 745 mmHg 82%
    06:00 +17°C° 0 mm 3 m/S 745 mmHg 80%
    07:00 +19°C° 0 mm 3 m/S 745 mmHg 78%
    08:00 +20°C° 0 mm 3 m/S 745 mmHg 76%
    09:00 +22°C° 0 mm 3 m/S 745 mmHg 70%
    10:00 +25°C° 0 mm 3 m/S 745 mmHg 65%
    11:00 +27°C° 0 mm 4 m/S 745 mmHg 60%
    12:00 +27°C° 0,1 mm 4 m/S 744 mmHg 58%
    13:00 +28°C° 0,1 mm 4 m/S 744 mmHg 56%
    14:00 +29°C° 0,1 mm 4 m/S 744 mmHg 54%
    15:00 +29°C° 0,1 mm 3 m/S 744 mmHg 55%
    16:00 +29°C° 0,1 mm 3 m/S 743 mmHg 57%
    17:00 +29°C° 0,1 mm 2 m/S 743 mmHg 59%
    18:00 +27°C° 0 mm 2 m/S 743 mmHg 64%
    19:00 +25°C° 0 mm 3 m/S 743 mmHg 70%
    20:00 +24°C° 0 mm 3 m/S 743 mmHg 75%
    21:00 +22°C° 0 mm 3 m/S 743 mmHg 74%
    22:00 +21°C° 0 mm 3 m/S 742 mmHg 74%
    23:00 +21°C° 0 mm 3 m/S 742 mmHg 73%

    25 Juli, Dienstag

    Zeit Temperatur Niederschläge Wind Luftdruck Luftfeuchtigkeit
    00:00 +20°C° 0 mm 4 m/S 742 mmHg 72%
    01:00 +20°C° 0 mm 4 m/S 742 mmHg 71%
    02:00 +20°C° 0 mm 4 m/S 742 mmHg 70%
    03:00 +19°C° 0 mm 4 m/S 742 mmHg 72%
    04:00 +18°C° 0 mm 4 m/S 742 mmHg 73%
    05:00 +18°C° 0 mm 4 m/S 741 mmHg 74%
    06:00 +19°C° 0 mm 4 m/S 741 mmHg 73%
    07:00 +20°C° 0 mm 5 m/S 741 mmHg 72%
    08:00 +21°C° 0 mm 5 m/S 741 mmHg 71%
    09:00 +23°C° 0 mm 5 m/S 741 mmHg 66%
    10:00 +24°C° 0 mm 6 m/S 741 mmHg 62%
    11:00 +27°C° 0 mm 6 m/S 741 mmHg 57%
    12:00 +27°C° 0 mm 6 m/S 740 mmHg 55%
    13:00 +28°C° 0 mm 6 m/S 740 mmHg 54%
    14:00 +29°C° 0 mm 6 m/S 740 mmHg 52%
    15:00 +29°C° 0 mm 6 m/S 739 mmHg 54%
    16:00 +29°C° 0 mm 6 m/S 739 mmHg 55%
    17:00 +28°C° 0 mm 5 m/S 739 mmHg 57%
    18:00 +27°C° 0,7 mm 5 m/S 739 mmHg 65%
    19:00 +25°C° 0,7 mm 4 m/S 739 mmHg 73%
    20:00 +22°C° 0,7 mm 4 m/S 738 mmHg 80%
    21:00 +21°C° 2 mm 4 m/S 739 mmHg 82%
    22:00 +21°C° 2 mm 4 m/S 739 mmHg 85%
    23:00 +20°C° 2 mm 4 m/S 739 mmHg 87%

    26 Juli, Mittwoch

    Zeit Temperatur Niederschläge Wind Luftdruck Luftfeuchtigkeit
    00:00 +19°C° 1,1 mm 4 m/S 738 mmHg 88%
    01:00 +19°C° 1,1 mm 4 m/S 738 mmHg 89%
    02:00 +18°C° 1,1 mm 4 m/S 738 mmHg 91%
    03:00 +18°C° 0,1 mm 4 m/S 738 mmHg 90%
    04:00 +17°C° 0,1 mm 4 m/S 738 mmHg 90%
    05:00 +17°C° 0,1 mm 4 m/S 738 mmHg 89%
    06:00 +17°C° 0 mm 5 m/S 738 mmHg 87%
    07:00 +19°C° 0 mm 5 m/S 738 mmHg 85%
    08:00 +20°C° 0 mm 5 m/S 739 mmHg 82%
    09:00 +20°C° 0 mm 5 m/S 739 mmHg 83%
    10:00 +21°C° 0 mm 4 m/S 739 mmHg 84%
    11:00 +21°C° 0 mm 4 m/S 740 mmHg 85%
    12:00 +21°C° 0,1 mm 4 m/S 740 mmHg 84%
    13:00 +21°C° 0,1 mm 4 m/S 741 mmHg 83%
    14:00 +21°C° 0,1 mm 4 m/S 741 mmHg 83%
    15:00 +21°C° 0,1 mm 3 m/S 741 mmHg 82%
    16:00 +21°C° 0,1 mm 3 m/S 741 mmHg 80%
    17:00 +21°C° 0,1 mm 3 m/S 741 mmHg 79%
    18:00 +20°C° 0 mm 2 m/S 742 mmHg 82%
    19:00 +20°C° 0 mm 2 m/S 742 mmHg 85%
    20:00 +19°C° 0 mm 2 m/S 742 mmHg 88%
    21:00 +19°C° 0 mm 1 m/S 742 mmHg 90%
    22:00 +18°C° 0 mm 1 m/S 742 mmHg 92%
    23:00 +18°C° 0 mm 1 m/S 743 mmHg 94%
    Mehr zeigen